[[[{"header":{"parameterUnit":"kt","parameterCategory":2,"dx":1,"dy":1,"la1":30.253999710083008,"la2":30.299108505249023,"lo1":-89.0895004272461,"lo2":-89.04439544677734,"nx":28,"ny":28,"refTime":"2022-09-23T21:00:00:Z","depth":"0","parameterNumber":2,"parameterNumberName":"U-component_of_CURRENTS"},"data":[0.2723,0.2726,0.2764,0.2803,0.2819,0.284,0.2915,0.3085,0.3343,0.3882,0.4355,0.4779,0.5723,0.6887,0.7466,0.7445,0.6881,0.6705,0.6431,0.6859,0.6804,0.6753,0.6638,0.7245,0.7244,0.581,0.5799,0.5791,0.277,0.2801,0.2779,0.2772,0.2787,0.2804,0.2918,0.2986,0.3286,0.371,0.413,0.5097,0.5976,0.6716,0.7505,0.7487,0.7138,0.7292,0.6568,0.6462,0.7051,0.6973,0.7661,0.7661,0.7661,0.7661,0.7661,0.7661,0.2857,0.2823,0.2826,0.2797,0.2782,0.2844,0.2841,0.3004,0.3206,0.3589,0.3961,0.4527,0.5484,0.6449,0.6733,0.7195,0.6612,0.6988,0.6731,0.6232,0.6053,0.6625,0.7264,0.7261,0.726,0.7258,0.7256,0,0.2933,0.2941,0.2881,0.2855,0.283,0.2782,0.2809,0.2884,0.3028,0.3264,0.3739,0.412,0.4998,0.5639,0.6256,0.6455,0.5963,0.6375,0.6279,0.5979,0.55,0.5458,0.5781,0.6287,0.6279,0.6274,0.6269,0.6266,0.3051,0.3011,0.2935,0.2901,0.2867,0.2787,0.2769,0.2781,0.2871,0.321,0.3369,0.3912,0.434,0.5125,0.5479,0.5934,0.554,0.6182,0.5859,0.5834,0.5662,0.5152,0.5048,0.6182,0.6193,0.6202,0.6209,0,0.3111,0.3101,0.2997,0.2924,0.2893,0.282,0.2779,0.2795,0.2876,0.3052,0.3127,0.3451,0.3973,0.4252,0.4669,0.4756,0.5054,0.5256,0.5396,0.5514,0.5719,0.5491,0.5434,0.5359,0.5751,0.576,0.5769,0,0.3198,0.3109,0.3087,0.3034,0.2921,0.2875,0.2809,0.278,0.2861,0.2962,0.3047,0.3261,0.3467,0.3821,0.397,0.4477,0.4408,0.4594,0.4711,0.4767,0.4798,0.4868,0.4654,0.4343,0.4338,0.4334,0.4331,0,0.3302,0.3187,0.3103,0.3062,0.2966,0.2905,0.2851,0.2836,0.2832,0.2936,0.3052,0.3172,0.3376,0.3526,0.3853,0.3722,0.4292,0.4144,0.4528,0.4554,0.4801,0.4844,0.5002,0.4325,0.4324,0.4322,0.432,0,0.3368,0.3322,0.3207,0.3103,0.3071,0.3004,0.2919,0.2854,0.29,0.2933,0.3001,0.3118,0.3234,0.322,0.3544,0.3438,0.3607,0.375,0.3774,0.408,0.4156,0.474,0.4921,0.4867,0.4116,0.4112,0.4108,0,0.3465,0.3376,0.3362,0.3226,0.3164,0.3135,0.3051,0.3005,0.3018,0.3048,0.309,0.3147,0.3127,0.319,0.3223,0.3451,0.353,0.3322,0.3826,0.3844,0.409,0.4183,0.4316,0.4831,0.4055,0.406,0.4064,0,0.3553,0.3522,0.3501,0.3459,0.3389,0.3335,0.3239,0.3171,0.3168,0.3141,0.3158,0.3107,0.3198,0.3207,0.325,0.33,0.346,0.3398,0.3407,0.3652,0.3829,0.4084,0.4147,0.3466,0.3468,0.3471,0.4022,0,0.364,0.3596,0.3566,0.3523,0.3471,0.3408,0.3379,0.333,0.3334,0.3341,0.3323,0.3346,0.3368,0.3338,0.3363,0.3372,0.3507,0.3489,0.3547,0.3496,0.3751,0.3783,0.3437,0.3439,0.3441,0.3443,0,0,0.3719,0.3687,0.3713,0.3664,0.3623,0.3653,0.3577,0.3552,0.3519,0.3506,0.3535,0.354,0.3534,0.3503,0.3465,0.3457,0.3608,0.3465,0.3494,0.3499,0.3504,0.3743,0.3772,0.3447,0.3448,0.3448,0.3449,0,0.3762,0.3768,0.3742,0.371,0.3693,0.3683,0.3668,0.3648,0.3635,0.3574,0.3641,0.3636,0.3594,0.3596,0.3596,0.3492,0.365,0.3487,0.3403,0.3508,0.351,0.3512,0.3746,0.3771,0.3454,0.3454,0.3454,0,0.3829,0.3836,0.3831,0.3799,0.3791,0.3738,0.3802,0.3766,0.3715,0.3797,0.3728,0.3764,0.378,0.3717,0.3694,0.3711,0.371,0.3625,0.3614,0.3636,0.3751,0.3751,0.3751,0.3763,0.3764,0.3765,0,0,0.3858,0.385,0.3843,0.3807,0.3798,0.3806,0.3792,0.3802,0.3799,0.3798,0.3799,0.3808,0.3804,0.378,0.3779,0.37,0.3829,0.3659,0.3644,0.3632,0.3646,0.3757,0.3756,0.3767,0.3767,0.3767,0,0,0.3871,0.3889,0.3907,0.387,0.3842,0.3839,0.3816,0.3835,0.3822,0.3844,0.3878,0.388,0.3839,0.3843,0.3875,0.3774,0.384,0.3832,0.375,0.3733,0.3719,0.3741,0.393,0,0,0,0,0,0.3925,0.3886,0.3903,0.39,0.3881,0.3829,0.3825,0.385,0.3898,0.3857,0.3885,0.3916,0.3868,0.3897,0.3891,0.3829,0.3801,0.3795,0.3789,0.3669,0.365,0.3635,0,0,0,0,0,0,0.3923,0.3918,0.3904,0.3903,0.39,0.3832,0.3906,0.391,0.3902,0.3908,0.3912,0.3916,0.3937,0.3901,0.3896,0.3836,0.3932,0.3798,0.3793,0.3789,0.3663,0.3647,0.3634,0,0,0,0,0,0.3923,0.3919,0.3886,0.3904,0.3901,0.3922,0.3908,0.3912,0.3902,0.3923,0.3928,0.3923,0.3935,0.3933,0.3898,0.3838,0.3936,0.3934,0.3795,0.3791,0.3788,0.3655,0,0,0,0,0,0,0.3922,0.3914,0.3885,0.3885,0.393,0.3925,0.3925,0.3914,0.3918,0.3922,0.3936,0.3941,0.3933,0.3932,0.393,0.3836,0.3939,0.3937,0.3936,0.3792,0.3789,0.3786,0,0,0,0,0,0,0.3917,0.3913,0.3885,0.3916,0.392,0.3928,0.3928,0.3898,0.3918,0.393,0.3935,0.3938,0.3944,0.393,0.3929,0.388,0.3942,0.394,0.3938,0.3937,0.3789,0.3787,0,0,0,0,0,0,0.3916,0.3913,0.3916,0.3919,0.3922,0.3919,0.3901,0.3884,0.3937,0.3929,0.3944,0.3947,0.3942,0.3941,0.3928,0.3879,0.388,0.3942,0.394,0.3939,0.3939,0,0,0,0,0,0,0,0.3915,0.393,0.3891,0.3921,0.3924,0.3885,0.3884,0.3884,0.3938,0.3941,0.3943,0.3946,0.3953,0.3951,0.3949,0.3879,0,0,0.3942,0.3941,0,0,0,0,0,0,0,0,0.3931,0.393,0.3891,0.3892,0.3892,0.3885,0.3884,0.3884,0.3938,0.3941,0.3943,0.3945,0.3953,0.3951,0.3949,0,0,0,0,0,0,0,0,0,0,0,0,0,0,0,0.3891,0.3892,0,0.3885,0.3884,0.3884,0.3939,0.3941,0.3942,0.3944,0.3952,0.3951,0.3949,0,0,0,0,0,0,0,0,0,0,0,0,0,0,0,0,0,0,0,0,0,0,0,0,0,0,0,0,0,0,0,0,0,0,0,0,0,0,0,0,0,0,0,0,0,0,0,0,0,0,0,0,0,0,0,0,0,0,0,0,0,0,0,0,0,0,0,0,0]}],[{"header":{"parameterUnit":"kt","parameterCategory":2,"dx":1,"dy":1,"la1":30.253999710083008,"la2":30.299108505249023,"lo1":-89.0895004272461,"lo2":-89.04439544677734,"nx":28,"ny":28,"refTime":"2022-09-23T21:00:00:Z","depth":"0","parameterNumber":3,"parameterNumberName":"V-component_of_CURRENTS"},"data":[0.0576,0.0602,0.0607,0.0873,0.0982,0.1338,0.1617,0.2152,0.2677,0.3685,0.4296,0.4702,0.4471,0.2255,0.0646,0.0202,-0.0489,-0.0461,-0.1019,-0.0363,-0.0337,-0.0311,-0.0381,-0.059,-0.0592,-0.1624,-0.1634,-0.1642,0.0528,0.0516,0.0515,0.058,0.0745,0.0748,0.1125,0.1464,0.2124,0.2767,0.3364,0.3843,0.3324,0.2626,0.1532,0.0719,0.0355,0.0279,0.0171,-0.0039,0.0816,0.0801,0.084,0.084,0.0841,0.0841,0.0841,0.0842,0.0452,0.0423,0.0388,0.0394,0.0452,0.0667,0.0854,0.1169,0.1624,0.2383,0.2576,0.3212,0.3017,0.2477,0.189,0.1026,0.0877,0.077,0.049,0.038,0.0104,0.0965,0.1052,0.1049,0.1047,0.1045,0.1043,0,0.0426,0.0383,0.0325,0.0311,0.0339,0.0403,0.0557,0.0759,0.1094,0.1495,0.2109,0.2434,0.2424,0.2356,0.1849,0.1535,0.0767,0.1027,0.0682,0.0552,0.0397,0.013,0.099,0.1143,0.1141,0.1139,0.1138,0.1137,0.0433,0.038,0.0276,0.0271,0.0242,0.0253,0.0331,0.0476,0.0708,0.1239,0.1479,0.1761,0.2093,0.1918,0.1539,0.1216,0.0819,0.1001,0.0836,0.0501,0.0194,0.005,-0.0165,0.1113,0.1116,0.1118,0.1121,0,0.0456,0.0386,0.0299,0.024,0.0236,0.0227,0.0343,0.0477,0.0683,0.104,0.1151,0.147,0.1599,0.1464,0.1358,0.107,0.0739,0.0814,0.1029,0.1021,0.0481,0.0222,0.0047,-0.0206,0.0626,0.0625,0.0624,0,0.0468,0.0412,0.0326,0.0279,0.0259,0.0253,0.0334,0.0405,0.0623,0.0867,0.0964,0.1226,0.1125,0.1183,0.0981,0.0858,0.0941,0.0609,0.0582,0.076,0.0766,0.0512,0.0258,0.0677,0.0677,0.0676,0.0676,0,0.053,0.0415,0.0339,0.031,0.0268,0.0272,0.0284,0.0409,0.0511,0.072,0.0908,0.0937,0.1052,0.0939,0.0856,0.0786,0.0847,0.0728,0.0565,0.056,0.0749,0.0755,0.0569,0.0675,0.0675,0.0675,0.0675,0,0.0549,0.0476,0.037,0.0336,0.0322,0.0294,0.0378,0.038,0.0534,0.0616,0.072,0.0786,0.0813,0.0715,0.0683,0.0674,0.0578,0.0527,0.0527,0.0473,0.0395,0.0673,0.0733,0.0423,0.0494,0.0493,0.0492,0,0.0637,0.0505,0.0478,0.0394,0.0338,0.0361,0.0357,0.0383,0.0452,0.055,0.0551,0.0604,0.0487,0.0528,0.0498,0.0477,0.0448,0.0403,0.0438,0.044,0.0424,0.0433,0.0641,0.0705,0.0475,0.0477,0.0478,0,0.0707,0.0594,0.058,0.0554,0.0497,0.046,0.0435,0.0444,0.0513,0.046,0.056,0.0417,0.0475,0.0438,0.0391,0.0383,0.0414,0.0353,0.0353,0.0421,0.0482,0.0416,0.0421,0.0404,0.0406,0.0408,0.0465,0,0.0755,0.0694,0.0645,0.0587,0.0554,0.0494,0.0483,0.0468,0.0481,0.0503,0.0491,0.0413,0.0404,0.0333,0.0288,0.0292,0.0294,0.0265,0.0297,0.0289,0.0304,0.0315,0.0181,0.018,0.0179,0.0179,0,0,0.087,0.0784,0.0762,0.0696,0.067,0.0678,0.0624,0.0603,0.0537,0.0559,0.054,0.0458,0.0369,0.0337,0.0308,0.023,0.0255,0.0265,0.0259,0.0268,0.0276,0.0294,0.0305,0.0178,0.0178,0.0178,0.0177,0,0.0886,0.0854,0.0793,0.0757,0.0709,0.0697,0.0684,0.0637,0.0636,0.0561,0.0557,0.0514,0.0376,0.0351,0.0316,0.023,0.025,0.0181,0.0232,0.0253,0.0262,0.0271,0.029,0.03,0.0176,0.0176,0.0176,0,0.0967,0.0926,0.09,0.0824,0.0797,0.0747,0.078,0.0722,0.0698,0.0676,0.0609,0.0566,0.0489,0.0398,0.0349,0.0352,0.0265,0.0234,0.0234,0.0285,0.0309,0.0318,0.0325,0.0242,0.0243,0.0244,0,0,0.0989,0.0936,0.0896,0.0829,0.0808,0.079,0.0762,0.0762,0.0714,0.0698,0.0652,0.0588,0.0522,0.0474,0.0396,0.0287,0.0313,0.0248,0.0245,0.0242,0.0291,0.0315,0.0321,0.0247,0.0247,0.0247,0,0,0.1002,0.0949,0.0966,0.0879,0.0846,0.08,0.076,0.0773,0.0721,0.0726,0.0692,0.0672,0.058,0.0522,0.0568,0.0409,0.0414,0.0402,0.0466,0.046,0.0457,0.0546,0.0573,0,0,0,0,0,0.1025,0.0954,0.0969,0.0953,0.0867,0.0793,0.0783,0.0782,0.0817,0.0786,0.0751,0.074,0.0544,0.0584,0.0556,0.0525,0.0284,0.0277,0.0271,0.0326,0.0321,0.0317,0,0,0,0,0,0,0.1018,0.0998,0.0971,0.0922,0.0903,0.0796,0.0845,0.0843,0.082,0.0826,0.075,0.0737,0.0707,0.0595,0.057,0.0543,0.0582,0.0281,0.0276,0.0271,0.0324,0.0321,0.0317,0,0,0,0,0,0.1013,0.0996,0.086,0.0923,0.0907,0.0887,0.0849,0.0847,0.0833,0.0764,0.0755,0.0836,0.0706,0.0683,0.058,0.0556,0.0599,0.059,0.0278,0.0273,0.0269,0.0323,0,0,0,0,0,0,0.1009,0.0995,0.0857,0.0851,0.0954,0.0893,0.0884,0.0851,0.0772,0.0764,0.0847,0.0852,0.0704,0.0687,0.0669,0.0564,0.0612,0.0603,0.0597,0.0274,0.0271,0.0268,0,0,0,0,0,0,0.1004,0.0991,0.0854,0.0892,0.0892,0.0899,0.0891,0.0786,0.0769,0.0859,0.0861,0.085,0.0713,0.0689,0.0675,0.0512,0.0623,0.0614,0.0608,0.0604,0.0271,0.0269,0,0,0,0,0,0,0.0998,0.0987,0.0894,0.0893,0.0893,0.0835,0.0804,0.0705,0.0838,0.086,0.0846,0.085,0.0713,0.07,0.0679,0.0522,0.0514,0.0623,0.0617,0.0612,0.061,0,0,0,0,0,0,0,0.0994,0.1071,0.0887,0.0894,0.0894,0.0803,0.0802,0.08,0.0839,0.0842,0.0845,0.0848,0.0674,0.0664,0.0654,0.053,0,0,0.0624,0.0619,0,0,0,0,0,0,0,0,0.1076,0.1073,0.0887,0.0886,0.0884,0.0803,0.0802,0.0801,0.084,0.0842,0.0845,0.0847,0.0671,0.0663,0.0655,0,0,0,0,0,0,0,0,0,0,0,0,0,0,0,0.0887,0.0886,0,0.0803,0.0802,0.0801,0.084,0.0842,0.0844,0.0846,0.0669,0.0662,0.0656,0,0,0,0,0,0,0,0,0,0,0,0,0,0,0,0,0,0,0,0,0,0,0,0,0,0,0,0,0,0,0,0,0,0,0,0,0,0,0,0,0,0,0,0,0,0,0,0,0,0,0,0,0,0,0,0,0,0,0,0,0,0,0,0,0,0,0,0,0]}]],[[{"header":{"parameterUnit":"kt","parameterCategory":2,"dx":1,"dy":1,"la1":30.253999710083008,"la2":30.299108505249023,"lo1":-89.0895004272461,"lo2":-89.04439544677734,"nx":28,"ny":28,"refTime":"2022-09-23T21:00:00:Z","depth":"2","parameterNumber":2,"parameterNumberName":"U-component_of_CURRENTS"},"data":[0.1682,0.1733,0.1784,0.1947,0.209,0.2294,0.2437,0.2593,0.2707,0.2714,0.2675,0.2846,0.2803,0.2236,0.2132,0.201,0.2147,0.1896,0.3123,0.26,0.2649,0.2692,0.2386,0,0,0,0,0,0.1695,0.1763,0.1848,0.2007,0.2121,0.2258,0.249,0.2592,0.2869,0.308,0.3392,0.2943,0.2942,0.3004,0.2685,0.2711,0.2419,0.2718,0.2234,0.2288,0.2337,0.2102,0.1802,0.18,0.1798,0.1796,0,0,0.1744,0.1775,0.1885,0.2015,0.2146,0.2322,0.2428,0.2647,0.2887,0.3207,0.3497,0.3695,0.3587,0.3618,0.3609,0.3525,0.3748,0.35,0.3499,0.3509,0.3351,0.3319,0.3372,0.338,0.3386,0.3392,0.3398,0,0.18,0.1868,0.1923,0.2066,0.2185,0.231,0.2488,0.2588,0.2839,0.3073,0.3464,0.3723,0.404,0.3969,0.4179,0.4122,0.3913,0.3887,0.4563,0.2998,0.2948,0.2946,0.2956,0.2957,0.2962,0.2967,0.297,0.2972,0.1878,0.191,0.2053,0.212,0.219,0.2307,0.2407,0.2571,0.2705,0.307,0.3199,0.3598,0.3889,0.4314,0.4219,0.4371,0.4495,0.3995,0.3654,0.4198,0.4207,0.4179,0.4154,0.3032,0.3024,0.3018,0.3013,0,0.1914,0.1996,0.2065,0.2192,0.2244,0.2305,0.2489,0.258,0.2744,0.2956,0.3031,0.3305,0.3648,0.3819,0.4025,0.4003,0.4159,0.4223,0.3633,0.3599,0.4132,0.4113,0.4399,0.4406,0.4411,0.4416,0.442,0,0.198,0.203,0.2148,0.2181,0.2261,0.2356,0.2466,0.255,0.2716,0.2866,0.2976,0.3156,0.3279,0.3506,0.3564,0.3825,0.3805,0.381,0.3849,0.3283,0.3249,0.3562,0.3545,0.368,0.3677,0.3675,0.3673,0,0.199,0.2105,0.2158,0.2197,0.2317,0.2371,0.2446,0.2575,0.2663,0.2818,0.294,0.3063,0.322,0.3284,0.3488,0.3388,0.3724,0.3583,0.3748,0.376,0.3275,0.3242,0.367,0.367,0.3669,0.3668,0.3667,0,0.204,0.209,0.2172,0.2263,0.2296,0.2365,0.2476,0.2554,0.2695,0.2774,0.2885,0.2977,0.311,0.3078,0.3283,0.3221,0.3293,0.3349,0.3361,0.3463,0.3455,0.3122,0.3173,0.3518,0.3515,0.3513,0.351,0,0.2017,0.2101,0.2147,0.2239,0.2292,0.2371,0.244,0.2531,0.2627,0.2738,0.2813,0.2931,0.294,0.3014,0.305,0.3166,0.322,0.31,0.3296,0.3304,0.3375,0.353,0.2918,0.3148,0.3478,0.3481,0.3484,0,0.1988,0.209,0.2107,0.2149,0.2263,0.2314,0.2399,0.2492,0.2553,0.2673,0.276,0.287,0.2926,0.2966,0.3007,0.304,0.3174,0.3063,0.3064,0.3169,0.3358,0.3474,0.3508,0.3144,0.3146,0.3147,0.3458,0,0.2001,0.2054,0.2088,0.2165,0.2227,0.2299,0.2377,0.2453,0.2524,0.2583,0.271,0.2785,0.288,0.2914,0.2935,0.3018,0.3069,0.3021,0.2971,0.3039,0.3175,0.3196,0.2943,0.2943,0.2942,0.2942,0,0,0.1962,0.2001,0.2046,0.2104,0.2151,0.2232,0.2292,0.2356,0.2475,0.2514,0.2549,0.272,0.2769,0.2845,0.2885,0.2916,0.2982,0.2909,0.3012,0.302,0.3027,0.3158,0.3178,0.2941,0.294,0.294,0.294,0,0.1943,0.1983,0.2014,0.2075,0.2171,0.2213,0.2246,0.2344,0.2394,0.2503,0.2534,0.2618,0.2741,0.277,0.2802,0.2901,0.2938,0.2946,0.2962,0.3006,0.3014,0.3022,0.3152,0.317,0.2939,0.2939,0.2939,0,0.1919,0.195,0.1964,0.2046,0.2107,0.217,0.2191,0.2279,0.2331,0.2367,0.2473,0.2538,0.2595,0.2689,0.274,0.2714,0.2887,0.2825,0.283,0.2824,0.2867,0.2878,0.2887,0.2759,0.2758,0.2757,0,0,0.1911,0.1933,0.2001,0.2046,0.2084,0.2158,0.2206,0.2251,0.2322,0.2363,0.2425,0.2493,0.2561,0.2603,0.2672,0.2754,0.2786,0.2801,0.2809,0.2816,0.2814,0.2859,0.287,0.2754,0.2754,0.2754,0,0,0.1907,0.1949,0.1972,0.2018,0.2093,0.216,0.2215,0.2251,0.2339,0.2355,0.2393,0.2413,0.2525,0.2547,0.2502,0.2656,0.2624,0.2635,0.263,0.2641,0.2649,0.2628,0.2487,0,0,0,0,0,0.1909,0.1936,0.1956,0.1971,0.2062,0.2145,0.2163,0.2225,0.2239,0.2291,0.2349,0.2353,0.2532,0.2492,0.2511,0.2561,0.2714,0.2721,0.2728,0.2743,0.2755,0.2764,0,0,0,0,0,0,0.1914,0.1929,0.1956,0.2014,0.2037,0.2142,0.2139,0.2158,0.2236,0.2245,0.234,0.2353,0.2373,0.2485,0.2501,0.2548,0.2482,0.2717,0.2723,0.2728,0.2747,0.2757,0.2765,0,0,0,0,0,0.1919,0.1931,0.2057,0.2016,0.2035,0.2123,0.2139,0.2155,0.223,0.228,0.2298,0.228,0.2372,0.239,0.2494,0.254,0.2471,0.2476,0.2721,0.2726,0.273,0.2752,0,0,0,0,0,0,0.1923,0.1953,0.2063,0.2073,0.2014,0.2121,0.2137,0.2152,0.2263,0.228,0.2216,0.222,0.2371,0.2385,0.2399,0.2537,0.2462,0.2468,0.2471,0.2725,0.2728,0.2732,0,0,0,0,0,0,0.1947,0.196,0.2068,0.2062,0.2071,0.2119,0.2133,0.2194,0.2264,0.2193,0.22,0.2217,0.2351,0.2382,0.2393,0.2485,0.2455,0.2461,0.2465,0.2467,0.2728,0.2731,0,0,0,0,0,0,0.1955,0.1966,0.206,0.2067,0.2075,0.2188,0.2175,0.2268,0.2254,0.2188,0.2255,0.2255,0.2347,0.2359,0.2388,0.2475,0.2482,0.2455,0.2459,0.2462,0.2464,0,0,0,0,0,0,0,0.196,0.1862,0.2005,0.2071,0.2079,0.2161,0.2164,0.2167,0.2254,0.2254,0.2254,0.2255,0.2422,0.2428,0.2435,0.2467,0,0,0.2454,0.2457,0,0,0,0,0,0,0,0,0.186,0.1862,0.2006,0.2007,0.2009,0.2162,0.2164,0.2166,0.2254,0.2254,0.2254,0.2255,0.2424,0.2429,0.2434,0,0,0,0,0,0,0,0,0,0,0,0,0,0,0,0.2006,0.2007,0,0.2162,0.2164,0.2166,0.2254,0.2254,0.2254,0.2255,0.2425,0.2429,0.2434,0,0,0,0,0,0,0,0,0,0,0,0,0,0,0,0,0,0,0,0,0,0,0,0,0,0,0,0,0,0,0,0,0,0,0,0,0,0,0,0,0,0,0,0,0,0,0,0,0,0,0,0,0,0,0,0,0,0,0,0,0,0,0,0,0,0,0,0,0]}],[{"header":{"parameterUnit":"kt","parameterCategory":2,"dx":1,"dy":1,"la1":30.253999710083008,"la2":30.299108505249023,"lo1":-89.0895004272461,"lo2":-89.04439544677734,"nx":28,"ny":28,"refTime":"2022-09-23T21:00:00:Z","depth":"2","parameterNumber":3,"parameterNumberName":"V-component_of_CURRENTS"},"data":[0.0188,0.0219,0.0231,0.0378,0.0435,0.0676,0.0876,0.1353,0.1598,0.1949,0.191,0.1905,0.0946,0.0355,-0.0184,-0.0513,-0.0543,-0.0539,-0.0425,-0.0396,-0.0386,-0.0819,-0.0747,0,0,0,0,0,0.0163,0.0165,0.0181,0.026,0.0351,0.0368,0.0632,0.0905,0.1348,0.1608,0.1966,0.1371,0.0995,0.037,-0.0336,-0.0719,-0.0751,-0.0822,-0.0856,-0.0853,-0.0849,-0.0805,-0.0885,-0.0885,-0.0885,-0.0885,0,0,0.0123,0.013,0.0143,0.0181,0.0225,0.0378,0.0518,0.0715,0.0986,0.1407,0.1427,0.1558,0.0945,0.034,-0.0052,-0.0517,-0.0522,-0.0766,-0.0766,-0.0765,-0.0717,-0.0655,-0.0772,-0.0771,-0.0771,-0.077,-0.077,0,0.0117,0.0114,0.0124,0.0154,0.0189,0.0261,0.0347,0.0453,0.0588,0.0781,0.105,0.1164,0.0875,0.0541,0.0045,-0.02,-0.0589,-0.0656,-0.0587,-0.0734,-0.0674,-0.0682,-0.0667,-0.0803,-0.0803,-0.0803,-0.0802,-0.0802,0.0103,0.0111,0.0127,0.0143,0.0149,0.0181,0.0222,0.0275,0.0364,0.054,0.0622,0.061,0.0709,0.0384,-0.0017,-0.0359,-0.0417,-0.0641,-0.0703,-0.059,-0.06,-0.0586,-0.0573,-0.0799,-0.0799,-0.08,-0.08,0,0.009,0.0103,0.012,0.0136,0.0145,0.016,0.0219,0.0263,0.0308,0.0423,0.0433,0.0446,0.0366,0.0153,-0.0097,-0.0285,-0.0494,-0.0567,-0.0543,-0.0563,-0.0584,-0.057,-0.0711,-0.071,-0.071,-0.0709,-0.0709,0,0.0081,0.0094,0.011,0.0118,0.014,0.015,0.0183,0.0189,0.0232,0.0313,0.0247,0.0309,0.0091,0.0005,-0.0183,-0.0356,-0.0389,-0.0528,-0.0553,-0.0573,-0.0568,-0.0548,-0.0538,-0.0624,-0.0623,-0.0622,-0.0621,0,0.0055,0.0091,0.0106,0.0113,0.0136,0.0135,0.0145,0.0154,0.0186,0.0176,0.0226,0.0104,0.0106,-0.0084,-0.0197,-0.0213,-0.0383,-0.043,-0.0515,-0.0511,-0.0594,-0.0592,-0.062,-0.062,-0.062,-0.0619,-0.0619,0,0.0048,0.0065,0.0097,0.0109,0.0118,0.0131,0.0136,0.0152,0.0147,0.0152,0.0113,0.0095,0.0017,-0.0019,-0.0201,-0.0143,-0.0257,-0.033,-0.0337,-0.0321,-0.0315,-0.0462,-0.0505,-0.0399,-0.0396,-0.0395,-0.0393,0,0.0002,0.0048,0.0053,0.0082,0.0101,0.0092,0.0103,0.01,0.0105,0.0116,0.005,0.0048,-0.0001,0.0003,-0.0078,-0.0139,-0.023,-0.0152,-0.0332,-0.0337,-0.0305,-0.0327,-0.0361,-0.0473,-0.0368,-0.0371,-0.0373,0,-0.0031,0.0003,0.0006,0.0009,0.0031,0.0053,0.006,0.0061,0.0068,0.0062,0.0057,0.0013,-0.0001,-0.0024,-0.0047,-0.0114,-0.0189,-0.0131,-0.0137,-0.0193,-0.035,-0.0298,-0.031,-0.0222,-0.0224,-0.0227,-0.0353,0,-0.0074,-0.0053,-0.0027,-0.0012,0.0007,0.004,0.0039,0.0055,0.005,0.0041,0.0026,0.0005,-0.0022,-0.0026,-0.0038,-0.0096,-0.0103,-0.0123,-0.0159,-0.0157,-0.0207,-0.0222,-0.0055,-0.0056,-0.0056,-0.0057,0,0,-0.0136,-0.0104,-0.0094,-0.0064,-0.0056,-0.0052,-0.0027,-0.002,0.0003,-0.0006,-0.0002,-0.0031,-0.0046,-0.0086,-0.0077,-0.0067,-0.0108,-0.0078,-0.0136,-0.0144,-0.0152,-0.0201,-0.0215,-0.0058,-0.0058,-0.0059,-0.0059,0,-0.0158,-0.0142,-0.0115,-0.0097,-0.0071,-0.007,-0.0056,-0.0034,-0.0039,-0.0011,-0.0054,-0.0065,-0.0048,-0.0091,-0.011,-0.0072,-0.0133,-0.0062,-0.0056,-0.0138,-0.0146,-0.0153,-0.0201,-0.0213,-0.006,-0.006,-0.006,0,-0.0209,-0.0198,-0.0187,-0.0148,-0.0136,-0.0112,-0.0132,-0.0094,-0.0089,-0.0116,-0.0101,-0.0112,-0.0139,-0.0131,-0.0126,-0.0138,-0.0161,-0.012,-0.0117,-0.0135,-0.0224,-0.0231,-0.0237,-0.0166,-0.0166,-0.0166,0,0,-0.023,-0.021,-0.0193,-0.0154,-0.014,-0.0137,-0.012,-0.0125,-0.0117,-0.0115,-0.0123,-0.0138,-0.0152,-0.0151,-0.0155,-0.0129,-0.0182,-0.0133,-0.0128,-0.0123,-0.0139,-0.0225,-0.0231,-0.0167,-0.0167,-0.0167,0,0,-0.0242,-0.0232,-0.0245,-0.0196,-0.0176,-0.0164,-0.0137,-0.0146,-0.0135,-0.0145,-0.0176,-0.018,-0.0167,-0.0174,-0.0185,-0.0178,-0.0199,-0.0196,-0.0175,-0.0168,-0.0164,-0.0186,-0.0238,0,0,0,0,0,-0.0276,-0.0232,-0.0244,-0.0236,-0.02,-0.0157,-0.0152,-0.0162,-0.0185,-0.0161,-0.0176,-0.0207,-0.0195,-0.0205,-0.0203,-0.0203,-0.0181,-0.0179,-0.0177,-0.0143,-0.0136,-0.0131,0,0,0,0,0,0,-0.0273,-0.0263,-0.0245,-0.0232,-0.0223,-0.0159,-0.0207,-0.0209,-0.0188,-0.0193,-0.0203,-0.0208,-0.0233,-0.0208,-0.0206,-0.0206,-0.0239,-0.018,-0.0178,-0.0176,-0.014,-0.0135,-0.0131,0,0,0,0,0,-0.027,-0.0263,-0.0203,-0.0232,-0.0225,-0.0226,-0.0209,-0.0211,-0.0196,-0.0216,-0.0221,-0.0204,-0.0232,-0.0232,-0.0207,-0.0207,-0.0241,-0.024,-0.0179,-0.0177,-0.0176,-0.0138,0,0,0,0,0,0,-0.0268,-0.0267,-0.0202,-0.02,-0.0251,-0.0229,-0.0227,-0.0213,-0.0222,-0.0224,-0.0221,-0.0224,-0.023,-0.023,-0.023,-0.0206,-0.0243,-0.0242,-0.0241,-0.0178,-0.0177,-0.0175,0,0,0,0,0,0,-0.027,-0.0265,-0.0201,-0.0225,-0.0226,-0.0233,-0.0231,-0.0213,-0.0223,-0.0227,-0.0229,-0.0222,-0.0238,-0.0229,-0.0229,-0.0201,-0.0244,-0.0243,-0.0242,-0.0242,-0.0177,-0.0176,0,0,0,0,0,0,-0.0268,-0.0263,-0.0226,-0.0226,-0.0227,-0.0207,-0.0219,-0.0188,-0.0222,-0.0227,-0.0228,-0.023,-0.0237,-0.0237,-0.0228,-0.02,-0.0201,-0.0244,-0.0243,-0.0243,-0.0242,0,0,0,0,0,0,0,-0.0266,-0.0298,-0.0212,-0.0227,-0.0228,-0.0181,-0.018,-0.018,-0.0223,-0.0225,-0.0227,-0.0229,-0.0249,-0.0248,-0.0247,-0.0199,0,0,-0.0244,-0.0243,0,0,0,0,0,0,0,0,-0.03,-0.0299,-0.0212,-0.0211,-0.0211,-0.0181,-0.018,-0.018,-0.0223,-0.0225,-0.0227,-0.0228,-0.0249,-0.0248,-0.0247,0,0,0,0,0,0,0,0,0,0,0,0,0,0,0,-0.0212,-0.0211,0,-0.0181,-0.018,-0.018,-0.0224,-0.0225,-0.0226,-0.0228,-0.0249,-0.0248,-0.0247,0,0,0,0,0,0,0,0,0,0,0,0,0,0,0,0,0,0,0,0,0,0,0,0,0,0,0,0,0,0,0,0,0,0,0,0,0,0,0,0,0,0,0,0,0,0,0,0,0,0,0,0,0,0,0,0,0,0,0,0,0,0,0,0,0,0,0,0,0]}]],[[{"header":{"parameterUnit":"kt","parameterCategory":2,"dx":1,"dy":1,"la1":30.253999710083008,"la2":30.299108505249023,"lo1":-89.0895004272461,"lo2":-89.04439544677734,"nx":28,"ny":28,"refTime":"2022-09-23T21:00:00:Z","depth":"4","parameterNumber":2,"parameterNumberName":"U-component_of_CURRENTS"},"data":[0.0504,0.0582,0.0614,0.0641,0.0681,0.0786,0.0866,0.0966,0.0931,0.1111,0.106,0.1287,0.122,0.131,0.1232,0.1247,0.1305,0.1372,0.1371,0.1499,0.1508,0.1516,0.1362,0,0,0,0,0,0.0553,0.0581,0.0656,0.0761,0.0875,0.0963,0.1092,0.1162,0.1331,0.128,0.1383,0.1323,0.1322,0.1307,0.1257,0.1362,0.1396,0.1307,0.1411,0.1505,0.1515,0.1361,0,0,0,0,0,0,0.0615,0.0648,0.078,0.0892,0.1031,0.1073,0.1163,0.1227,0.1311,0.1496,0.1446,0.1492,0.1577,0.1512,0.1455,0.1442,0.1417,0.143,0.1444,0.1454,0.1321,0.13,0.1283,0,0,0,0,0,0.0666,0.0764,0.0857,0.0991,0.1131,0.1231,0.1374,0.1401,0.1536,0.1702,0.1666,0.1674,0.165,0.1574,0.159,0.1512,0.1638,0.1609,0.1614,0.1509,0.1512,0.1499,0.1496,0.1554,0.1555,0.1556,0.1556,0,0.0749,0.0802,0.1011,0.1078,0.1195,0.1346,0.1436,0.1601,0.1635,0.1776,0.1757,0.182,0.1798,0.1696,0.1665,0.1623,0.1568,0.1637,0.1525,0.1527,0.1514,0.1508,0.1501,0.1564,0.1564,0.1563,0.1562,0,0.0787,0.0902,0.1004,0.1188,0.1273,0.135,0.1551,0.1607,0.1731,0.1795,0.1816,0.1852,0.1803,0.1808,0.1763,0.1711,0.1643,0.1609,0.1705,0.1697,0.1522,0.1512,0.1578,0.1575,0.1572,0.157,0.1568,0,0.0865,0.0937,0.1115,0.116,0.1285,0.1377,0.151,0.1582,0.1688,0.1729,0.1773,0.1757,0.1753,0.1751,0.1674,0.1606,0.1674,0.1514,0.1505,0.1542,0.1534,0.1538,0.1528,0.1607,0.1606,0.1605,0.1604,0,0.0883,0.1014,0.1107,0.1146,0.1285,0.1378,0.1461,0.1564,0.162,0.1693,0.1737,0.1712,0.1716,0.1676,0.16,0.1575,0.1611,0.1575,0.1488,0.1484,0.1526,0.1519,0.1602,0.1602,0.1602,0.1601,0.1601,0,0.0941,0.099,0.1094,0.1215,0.1252,0.1336,0.1465,0.1517,0.1603,0.1628,0.1635,0.1618,0.1593,0.1517,0.1509,0.1476,0.1464,0.1446,0.1451,0.1336,0.1298,0.1474,0.1521,0.152,0.1518,0.1517,0.1516,0,0.0935,0.1006,0.1066,0.1168,0.1224,0.1308,0.1368,0.1439,0.1496,0.1554,0.1512,0.1517,0.1435,0.1413,0.1391,0.1354,0.1379,0.1316,0.1392,0.1396,0.1308,0.1323,0.132,0.1495,0.1498,0.15,0.1501,0,0.0911,0.1029,0.1044,0.1105,0.1195,0.1224,0.1305,0.1384,0.145,0.1459,0.1508,0.1426,0.1405,0.1377,0.1318,0.1311,0.1354,0.1283,0.1283,0.1377,0.1432,0.1316,0.1318,0.1315,0.1316,0.1317,0.1487,0,0.0944,0.1013,0.103,0.1102,0.1149,0.1202,0.1252,0.1317,0.1367,0.1391,0.1402,0.1351,0.1332,0.1294,0.1257,0.1249,0.1274,0.1231,0.124,0.1247,0.1321,0.1332,0.119,0.1189,0.1189,0.1189,0,0,0.0928,0.0971,0.1007,0.104,0.1081,0.1148,0.12,0.1249,0.1304,0.1333,0.1338,0.1303,0.1272,0.1249,0.1238,0.121,0.1241,0.1222,0.123,0.1234,0.1238,0.131,0.1321,0.1188,0.1187,0.1187,0.1187,0,0.0902,0.0957,0.0992,0.1027,0.1089,0.1122,0.1152,0.1207,0.1271,0.1299,0.1304,0.1292,0.1265,0.1246,0.1224,0.1207,0.1222,0.1183,0.1216,0.1225,0.123,0.1235,0.1306,0.1316,0.1186,0.1186,0.1186,0,0.0897,0.0908,0.0934,0.0979,0.1027,0.1074,0.1106,0.1173,0.1221,0.122,0.1303,0.1275,0.1241,0.1227,0.1227,0.1226,0.1222,0.1189,0.119,0.1209,0.1218,0.1224,0.1228,0.1175,0.1175,0.1175,0,0,0.0882,0.0911,0.094,0.097,0.1001,0.1061,0.1103,0.116,0.1197,0.1247,0.1266,0.127,0.1247,0.1255,0.1234,0.1209,0.1231,0.119,0.1191,0.1191,0.121,0.122,0.1224,0.1176,0.1176,0.1176,0,0,0.0865,0.089,0.0929,0.0964,0.1007,0.1037,0.11,0.1148,0.1228,0.1264,0.1267,0.1272,0.1282,0.1262,0.1278,0.123,0.1224,0.122,0.1256,0.1256,0.1257,0.1289,0.1271,0,0,0,0,0,0.0842,0.0866,0.09,0.0909,0.0976,0.1001,0.1019,0.1121,0.1178,0.1239,0.1274,0.1271,0.1273,0.1287,0.1279,0.1266,0.1188,0.1186,0.1184,0.1222,0.1223,0.1223,0,0,0,0,0,0,0.0845,0.085,0.0899,0.0915,0.0932,0.1001,0.1054,0.1083,0.1178,0.12,0.1263,0.1268,0.1265,0.129,0.1283,0.1271,0.1273,0.1187,0.1185,0.1183,0.1222,0.1223,0.1223,0,0,0,0,0,0.0847,0.0852,0.0937,0.0919,0.0933,0.1049,0.1059,0.1084,0.1196,0.1181,0.1199,0.1279,0.1262,0.1261,0.1285,0.1275,0.1278,0.1275,0.1186,0.1184,0.1183,0.1223,0,0,0,0,0,0,0.0848,0.0895,0.0943,0.0951,0.0952,0.1053,0.1074,0.1084,0.1174,0.1191,0.1186,0.1199,0.1258,0.1258,0.1257,0.1277,0.1282,0.1279,0.1277,0.1185,0.1184,0.1183,0,0,0,0,0,0,0.0892,0.0901,0.0948,0.0984,0.0998,0.1057,0.1075,0.1032,0.1171,0.1177,0.1191,0.119,0.1225,0.1255,0.1255,0.1188,0.1285,0.1282,0.128,0.1279,0.1184,0.1183,0,0,0,0,0,0,0.0898,0.0906,0.0984,0.0994,0.1007,0.1116,0.102,0.1073,0.1247,0.117,0.1259,0.1264,0.1217,0.1221,0.1253,0.1186,0.1187,0.1284,0.1283,0.1282,0.1281,0,0,0,0,0,0,0,0.0903,0.0822,0.0881,0.1003,0.1014,0.1024,0.1027,0.1031,0.1249,0.1253,0.1258,0.1262,0.1299,0.1296,0.1293,0.1184,0,0,0.1285,0.1284,0,0,0,0,0,0,0,0,0.0821,0.0822,0.0881,0.0882,0.0883,0.1024,0.1027,0.103,0.1249,0.1253,0.1257,0.126,0.1298,0.1296,0.1293,0,0,0,0,0,0,0,0,0,0,0,0,0,0,0,0.0882,0.0882,0,0.1025,0.1027,0.1029,0.125,0.1253,0.1256,0.1259,0.1297,0.1295,0.1294,0,0,0,0,0,0,0,0,0,0,0,0,0,0,0,0,0,0,0,0,0,0,0,0,0,0,0,0,0,0,0,0,0,0,0,0,0,0,0,0,0,0,0,0,0,0,0,0,0,0,0,0,0,0,0,0,0,0,0,0,0,0,0,0,0,0,0,0,0]}],[{"header":{"parameterUnit":"kt","parameterCategory":2,"dx":1,"dy":1,"la1":30.253999710083008,"la2":30.299108505249023,"lo1":-89.0895004272461,"lo2":-89.04439544677734,"nx":28,"ny":28,"refTime":"2022-09-23T21:00:00:Z","depth":"4","parameterNumber":3,"parameterNumberName":"V-component_of_CURRENTS"},"data":[0.0084,0.0142,0.0189,0.0274,0.0313,0.039,0.0431,0.044,0.0452,0.0421,0.0305,0.0237,0.0018,0.0112,-0.0203,-0.0246,-0.0363,-0.0526,-0.0528,-0.0721,-0.0726,-0.0731,-0.0738,0,0,0,0,0,0.0099,0.013,0.0196,0.0238,0.0318,0.0332,0.0403,0.0398,0.0387,0.0419,0.0357,0.0277,0.0051,-0.0072,-0.0189,-0.0272,-0.0496,-0.0415,-0.0574,-0.0724,-0.073,-0.0735,0,0,0,0,0,0,0.0113,0.0139,0.0173,0.0199,0.025,0.0313,0.0295,0.0321,0.0324,0.0293,0.0307,0.0135,0.0026,-0.0189,-0.0267,-0.0391,-0.0472,-0.0533,-0.0549,-0.0556,-0.053,-0.0489,-0.0359,0,0,0,0,0,0.011,0.0109,0.0128,0.0171,0.0162,0.0194,0.0178,0.0206,0.0175,0.0139,0.0135,0.0003,-0.008,-0.0277,-0.0373,-0.0483,-0.0687,-0.067,-0.0676,-0.0787,-0.0776,-0.0791,-0.0797,-0.0752,-0.0753,-0.0753,-0.0753,0,0.009,0.0098,0.0101,0.0117,0.0077,0.0032,0.0029,-0.0046,-0.0022,-0.0061,-0.0017,-0.0121,-0.0207,-0.0321,-0.0488,-0.0634,-0.0658,-0.0683,-0.0799,-0.0786,-0.0798,-0.0804,-0.0808,-0.0758,-0.0757,-0.0757,-0.0757,0,0.0079,0.0069,0.0077,0.0037,0.0016,-0.0013,-0.0066,-0.0081,-0.0168,-0.0165,-0.0191,-0.0317,-0.0391,-0.0521,-0.0622,-0.0697,-0.0755,-0.075,-0.0767,-0.0779,-0.0815,-0.0818,-0.0765,-0.0764,-0.0762,-0.0761,-0.076,0,0.0052,0.0047,0.0016,0.0018,0.0,-0.0056,-0.0111,-0.0177,-0.0253,-0.0253,-0.0427,-0.0438,-0.0622,-0.0658,-0.0745,-0.0784,-0.079,-0.0855,-0.0862,-0.0924,-0.0926,-0.0938,-0.0942,-0.0903,-0.0903,-0.0903,-0.0903,0,0.0021,0.0013,0.0016,0.001,-0.0024,-0.0074,-0.0124,-0.023,-0.0258,-0.0412,-0.045,-0.0585,-0.0641,-0.0711,-0.0789,-0.0833,-0.0835,-0.0901,-0.088,-0.0878,-0.0941,-0.0945,-0.0904,-0.0904,-0.0904,-0.0904,-0.0904,0,-0.0019,-0.0006,-0.0002,-0.0029,-0.0041,-0.0075,-0.0159,-0.0205,-0.0341,-0.0433,-0.0558,-0.0662,-0.0736,-0.0792,-0.086,-0.0873,-0.0901,-0.0936,-0.0936,-0.0912,-0.0938,-0.0954,-0.094,-0.0941,-0.0941,-0.0942,-0.0942,0,-0.0042,-0.0022,-0.0045,-0.0058,-0.0064,-0.0136,-0.0171,-0.0256,-0.0375,-0.0494,-0.0609,-0.072,-0.0795,-0.086,-0.0887,-0.0951,-0.0946,-0.0959,-0.0981,-0.0981,-0.0929,-0.0907,-0.0981,-0.0948,-0.0947,-0.0946,-0.0946,0,-0.0058,-0.0079,-0.0084,-0.0097,-0.0144,-0.0158,-0.0218,-0.0295,-0.0362,-0.0529,-0.0621,-0.0743,-0.0841,-0.0879,-0.0949,-0.0963,-0.0954,-0.0999,-0.1001,-0.0963,-0.0955,-0.0918,-0.0911,-0.0983,-0.0983,-0.0982,-0.095,0,-0.007,-0.0095,-0.0098,-0.012,-0.0145,-0.0173,-0.0232,-0.0327,-0.0454,-0.0536,-0.0682,-0.0792,-0.0909,-0.0949,-0.0983,-0.101,-0.102,-0.1043,-0.1036,-0.1036,-0.1025,-0.1021,-0.107,-0.1071,-0.1072,-0.1072,0,0,-0.0092,-0.0102,-0.014,-0.0139,-0.0156,-0.0246,-0.026,-0.0329,-0.048,-0.0549,-0.0636,-0.0838,-0.0915,-0.0965,-0.0995,-0.103,-0.1036,-0.1039,-0.1048,-0.1045,-0.1043,-0.1031,-0.1027,-0.1073,-0.1073,-0.1074,-0.1074,0,-0.0078,-0.0127,-0.0131,-0.0152,-0.0201,-0.0236,-0.0265,-0.0369,-0.0468,-0.0573,-0.068,-0.0791,-0.092,-0.0973,-0.1003,-0.1034,-0.1057,-0.1077,-0.1049,-0.1053,-0.1049,-0.1046,-0.1034,-0.103,-0.1075,-0.1075,-0.1075,0,-0.0088,-0.0099,-0.0115,-0.0151,-0.0199,-0.0216,-0.0301,-0.0368,-0.0415,-0.0538,-0.0699,-0.0792,-0.0863,-0.0945,-0.0999,-0.1,-0.1057,-0.1068,-0.1067,-0.1053,-0.1058,-0.1054,-0.1051,-0.1084,-0.1083,-0.1083,0,0,-0.0077,-0.0091,-0.0124,-0.0149,-0.0169,-0.0251,-0.0291,-0.037,-0.0466,-0.0541,-0.0668,-0.0783,-0.0847,-0.0911,-0.0984,-0.1034,-0.1032,-0.1066,-0.1065,-0.1065,-0.1051,-0.1055,-0.1053,-0.1082,-0.1082,-0.1082,0,0,-0.0081,-0.0106,-0.0144,-0.0171,-0.0211,-0.0269,-0.0317,-0.0393,-0.0531,-0.0589,-0.0696,-0.0732,-0.085,-0.0891,-0.0867,-0.0991,-0.0997,-0.1003,-0.0956,-0.0956,-0.0956,-0.0924,-0.0921,0,0,0,0,0,-0.0066,-0.0077,-0.0109,-0.0118,-0.0197,-0.0223,-0.024,-0.0368,-0.0459,-0.0509,-0.0641,-0.0689,-0.0911,-0.0891,-0.0907,-0.0934,-0.1066,-0.1069,-0.1072,-0.1025,-0.1024,-0.1024,0,0,0,0,0,0,-0.0069,-0.0078,-0.0108,-0.0152,-0.017,-0.0224,-0.0323,-0.0358,-0.046,-0.049,-0.066,-0.0689,-0.0753,-0.0886,-0.09,-0.0924,-0.0916,-0.1067,-0.107,-0.1072,-0.1025,-0.1024,-0.1024,0,0,0,0,0,-0.0072,-0.0079,-0.0182,-0.0155,-0.0171,-0.0311,-0.033,-0.036,-0.0485,-0.0563,-0.0602,-0.0589,-0.0745,-0.0771,-0.0895,-0.0917,-0.0907,-0.0912,-0.1069,-0.1071,-0.1072,-0.1024,0,0,0,0,0,0,-0.0074,-0.0125,-0.0188,-0.0197,-0.0206,-0.0318,-0.0343,-0.0361,-0.056,-0.0592,-0.0487,-0.0505,-0.0739,-0.076,-0.0778,-0.0912,-0.09,-0.0905,-0.0908,-0.107,-0.1072,-0.1073,0,0,0,0,0,0,-0.0121,-0.0132,-0.0193,-0.0251,-0.0268,-0.0322,-0.0345,-0.0374,-0.0562,-0.0478,-0.0496,-0.0493,-0.0723,-0.0752,-0.0767,-0.0807,-0.0894,-0.0899,-0.0902,-0.0904,-0.1072,-0.1073,0,0,0,0,0,0,-0.0128,-0.0137,-0.0251,-0.0264,-0.028,-0.0397,-0.0355,-0.0449,-0.056,-0.0469,-0.0576,-0.0584,-0.0711,-0.073,-0.0758,-0.079,-0.0803,-0.0894,-0.0897,-0.09,-0.0901,0,0,0,0,0,0,0,-0.0133,-0.0042,-0.0121,-0.0274,-0.0289,-0.0273,-0.0277,-0.0281,-0.0561,-0.0568,-0.0575,-0.0581,-0.0866,-0.0872,-0.0877,-0.0776,0,0,-0.0894,-0.0896,0,0,0,0,0,0,0,0,-0.0041,-0.0042,-0.0122,-0.0122,-0.0123,-0.0273,-0.0277,-0.028,-0.0562,-0.0568,-0.0573,-0.0578,-0.0868,-0.0872,-0.0876,0,0,0,0,0,0,0,0,0,0,0,0,0,0,0,-0.0122,-0.0122,0,-0.0274,-0.0276,-0.0279,-0.0563,-0.0568,-0.0572,-0.0576,-0.0869,-0.0872,-0.0876,0,0,0,0,0,0,0,0,0,0,0,0,0,0,0,0,0,0,0,0,0,0,0,0,0,0,0,0,0,0,0,0,0,0,0,0,0,0,0,0,0,0,0,0,0,0,0,0,0,0,0,0,0,0,0,0,0,0,0,0,0,0,0,0,0,0,0,0,0]}]]]